Weather History for Appleton, MN

Change the Weather History Date:

Thursday, August 9, 2012

  Actual Average Record
Temperature  
Mean Temperature 67 °F -  
Max Temperature 77 °F 77 °F 89 °F (2007)
Min Temperature 57 °F 55 °F 53 °F (2013)
Cooling Degree Days 2    
Growing Degree Days 17 (Base 50)    
Moisture  
Dew Point 55 °F    
Average Humidity 69    
Maximum Humidity 100    
Minimum Humidity 34    
Precipitation  
Precipitation 0.00 in - - ()
Sea Level Pressure  
Sea Level Pressure 30.07 in    
Wind  
Wind Speed 7 mph (NNW)    
Max Wind Speed 20 mph    
Max Gust Speed 28 mph    
Visibility 9 miles    
Events Fog    
Averages and records for this station are not official NWS values.
T = Trace of Precipitation, MM = Missing Value Source: NWS Daily Summary

Daily Weather History Graph

Daily Weather History Graph

Search for Another Location

Airport:

Trip Planner

Search our weather history database for the weather conditions in past years. The results will help you decide how hot, cold, wet, or windy it might be!

Date:

Astronomy

Aug. 09, 2012 Rise Set
Actual Time 6:18 AM CDT 8:39 PM CDT
Civil Twilight 5:45 AM CDT 9:12 PM CDT
Nautical Twilight 5:05 AM CDT 9:52 PM CDT
Astronomical Twilight 4:19 AM CDT 10:38 PM CDT
Moon No Moon Rise 2:26 PM CDT (8/9)
Length of Visible Light 15h 26m
Length of Day
14h 20m
Waning Gibbous, 51% of the Moon is Illuminated
Aug 9
Waning Gibbous
Aug 9
Last Quarter
Aug 17
New
Aug 24
First Quarter
Aug 31
Full

Hourly Weather History & Observations

Time (CDT) Temp. Dew Point Humidity Pressure Visibility Wind Dir Wind Speed Gust Speed Precip Events Conditions
12:13 AM 60.8 °F 57.2 °F 88% 30.05 in 7.0 mi Calm Calm - N/A   Clear
12:33 AM 60.8 °F 59.0 °F 94% 30.05 in 2.5 mi Calm Calm - N/A   Clear
12:53 AM 60.8 °F 59.0 °F 94% 30.04 in 0.8 mi Calm Calm - N/A   Mist
1:13 AM 57.2 °F 57.2 °F 100% 30.05 in 5.0 mi Calm Calm - N/A   Clear
1:34 AM 59.0 °F 57.2 °F 94% 30.05 in 7.0 mi West 3.5 mph - N/A   Clear
1:53 AM 59.0 °F 57.2 °F 94% 30.05 in 1.0 mi Calm Calm - N/A   Clear
2:13 AM 59.0 °F 57.2 °F 94% 30.05 in 5.0 mi Calm Calm - N/A   Clear
2:33 AM 57.2 °F 57.2 °F 100% 30.05 in 7.0 mi West 3.5 mph - N/A   Clear
2:53 AM 59.0 °F 57.2 °F 94% 30.05 in 3.0 mi West 3.5 mph - N/A   Clear
3:14 AM 59.0 °F 57.2 °F 94% 30.04 in 0.8 mi West 3.5 mph - N/A   Mist
3:33 AM 57.2 °F 57.2 °F 100% 30.04 in 1.0 mi WNW 3.5 mph - N/A   Clear
3:53 AM 57.2 °F 57.2 °F 100% 30.04 in 0.5 mi West 4.6 mph - N/A Fog Fog
4:13 AM 57.2 °F 57.2 °F 100% 30.04 in 1.0 mi West 4.6 mph - N/A   Mostly Cloudy
4:33 AM 57.2 °F 55.4 °F 94% 30.03 in 0.2 mi West 3.5 mph - N/A Fog Fog
5:13 AM 59.0 °F 57.2 °F 94% 30.04 in 7.0 mi Calm Calm - N/A   Overcast
5:34 AM 60.8 °F 59.0 °F 94% 30.03 in 10.0 mi WSW 4.6 mph - N/A   Overcast
5:53 AM 60.8 °F 59.0 °F 94% 30.03 in 10.0 mi West 4.6 mph - N/A   Mostly Cloudy
6:13 AM 60.8 °F 59.0 °F 94% 30.04 in 10.0 mi West 5.8 mph - N/A   Overcast
6:34 AM 60.8 °F 57.2 °F 88% 30.04 in 10.0 mi West 3.5 mph - N/A   Scattered Clouds
6:53 AM 60.8 °F 57.2 °F 88% 30.04 in 10.0 mi West 4.6 mph - N/A   Clear
7:13 AM 60.8 °F 59.0 °F 94% 30.04 in 10.0 mi WNW 4.6 mph - N/A   Clear
7:33 AM 62.6 °F 60.8 °F 94% 30.04 in 10.0 mi NW 10.4 mph - N/A   Clear
7:53 AM 64.4 °F 60.8 °F 88% 30.05 in 10.0 mi NNW 9.2 mph - N/A   Clear
8:13 AM 64.4 °F 60.8 °F 88% 30.05 in 10.0 mi NNW 10.4 mph - N/A   Clear
8:33 AM 66.2 °F 60.8 °F 83% 30.05 in 10.0 mi NNW 9.2 mph - N/A   Clear
8:53 AM 68.0 °F 60.8 °F 78% 30.05 in 10.0 mi NNW 12.7 mph 17.3 mph N/A   Clear
9:13 AM 69.8 °F 60.8 °F 73% 30.06 in 10.0 mi NNW 15.0 mph - N/A   Clear
9:34 AM 71.6 °F 60.8 °F 69% 30.06 in 10.0 mi North 13.8 mph - N/A   Clear
9:53 AM 71.6 °F 60.8 °F 69% 30.07 in 10.0 mi NNW 16.1 mph 20.7 mph N/A   Clear
10:13 AM 71.6 °F 60.8 °F 69% 30.07 in 10.0 mi North 16.1 mph 21.9 mph N/A   Clear
10:34 AM 71.6 °F 59.0 °F 64% 30.07 in 10.0 mi North 15.0 mph - N/A   Scattered Clouds
10:54 AM 71.6 °F 57.2 °F 60% 30.07 in 10.0 mi North 13.8 mph - N/A   Clear
11:14 AM 73.4 °F 57.2 °F 57% 30.07 in 10.0 mi North 15.0 mph - N/A   Clear
11:33 AM 73.4 °F 55.4 °F 53% 30.07 in 10.0 mi North 15.0 mph - N/A   Scattered Clouds
11:54 AM 73.4 °F 55.4 °F 53% 30.07 in 10.0 mi NNW 15.0 mph 19.6 mph N/A   Scattered Clouds
12:13 PM 75.2 °F 51.8 °F 44% 30.07 in 10.0 mi North 15.0 mph 20.7 mph N/A   Scattered Clouds
12:33 PM 75.2 °F 51.8 °F 44% 30.07 in 10.0 mi North 12.7 mph 18.4 mph N/A   Scattered Clouds
12:54 PM 77.0 °F 51.8 °F 41% 30.07 in 10.0 mi North 15.0 mph 18.4 mph N/A   Scattered Clouds
1:13 PM 75.2 °F 51.8 °F 44% 30.07 in 10.0 mi NNW 19.6 mph - N/A   Clear
1:33 PM 75.2 °F 51.8 °F 44% 30.07 in 10.0 mi NNW 18.4 mph 21.9 mph N/A   Clear
1:53 PM 75.2 °F 51.8 °F 44% 30.07 in 10.0 mi NNW 18.4 mph 23.0 mph N/A   Clear
2:13 PM 77.0 °F 50.0 °F 39% 30.06 in 10.0 mi North 17.3 mph 24.2 mph N/A   Clear
2:34 PM 77.0 °F 48.2 °F 36% 30.07 in 10.0 mi NNW 13.8 mph 19.6 mph N/A   Clear
2:53 PM 77.0 °F 46.4 °F 34% 30.07 in 10.0 mi NNW 19.6 mph 24.2 mph N/A   Clear
3:13 PM 77.0 °F 48.2 °F 36% 30.07 in 10.0 mi North 16.1 mph - N/A   Clear
3:35 PM 77.0 °F 48.2 °F 36% 30.07 in 10.0 mi North 18.4 mph 25.3 mph N/A   Scattered Clouds
3:53 PM 75.2 °F 48.2 °F 38% 30.07 in 10.0 mi NNW 17.3 mph - N/A   Clear
4:13 PM 75.2 °F 50.0 °F 41% 30.07 in 10.0 mi North 18.4 mph 26.5 mph N/A   Scattered Clouds
4:33 PM 75.2 °F 50.0 °F 41% 30.08 in 10.0 mi North 16.1 mph 27.6 mph N/A   Scattered Clouds
4:53 PM 75.2 °F 50.0 °F 41% 30.07 in 10.0 mi North 17.3 mph 21.9 mph N/A   Scattered Clouds
5:13 PM 75.2 °F 51.8 °F 44% 30.07 in 10.0 mi North 17.3 mph 23.0 mph N/A   Mostly Cloudy
5:34 PM 75.2 °F 50.0 °F 41% 30.07 in 10.0 mi North 13.8 mph - N/A   Mostly Cloudy
5:53 PM 75.2 °F 50.0 °F 41% 30.07 in 10.0 mi North 16.1 mph - N/A   Scattered Clouds
6:13 PM 73.4 °F 51.8 °F 47% 30.07 in 10.0 mi North 13.8 mph - N/A   Scattered Clouds
6:34 PM 73.4 °F 50.0 °F 44% 30.08 in 10.0 mi NNE 13.8 mph 19.6 mph N/A   Clear
6:53 PM 73.4 °F 50.0 °F 44% 30.08 in 10.0 mi North 13.8 mph - N/A   Scattered Clouds
7:13 PM 71.6 °F 51.8 °F 50% 30.08 in 10.0 mi NNE 10.4 mph - N/A   Clear
7:33 PM 71.6 °F 51.8 °F 50% 30.09 in 10.0 mi NNE 9.2 mph - N/A   Clear
7:53 PM 69.8 °F 51.8 °F 53% 30.10 in 10.0 mi North 8.1 mph - N/A   Clear
8:13 PM 68.0 °F 51.8 °F 56% 30.10 in 10.0 mi NNE 5.8 mph - N/A   Clear
8:33 PM 66.2 °F 53.6 °F 64% 30.11 in 10.0 mi North 5.8 mph - N/A   Clear
8:53 PM 64.4 °F 53.6 °F 68% 30.11 in 10.0 mi North 6.9 mph - N/A   Clear
9:14 PM 62.6 °F 53.6 °F 72% 30.11 in 10.0 mi North 4.6 mph - N/A   Clear
9:33 PM 60.8 °F 53.6 °F 77% 30.11 in 10.0 mi North 4.6 mph - N/A   Clear
9:53 PM 60.8 °F 53.6 °F 77% 30.12 in 10.0 mi NNE 5.8 mph - N/A   Clear
10:13 PM 60.8 °F 53.6 °F 77% 30.12 in 10.0 mi North 3.5 mph - N/A   Clear
10:33 PM 60.8 °F 53.6 °F 77% 30.12 in 10.0 mi NNE 4.6 mph - N/A   Clear
10:53 PM 60.8 °F 53.6 °F 77% 30.13 in 10.0 mi North 6.9 mph - N/A   Clear
11:34 PM 60.8 °F 55.4 °F 82% 30.13 in 10.0 mi NE 8.1 mph - N/A   Clear
11:53 PM 60.8 °F 55.4 °F 82% 30.13 in 10.0 mi ENE 5.8 mph - N/A   Clear